Location: Abraham Lincoln Continuation High School
(33.9711°N, 117.3662°W)
Time: 01:09:04
(UTC+00:00)

NOSS 3-2 (A) - Visible Passes

Search period start: 24 January 2021 00:00
Search period end: 03 February 2021 00:00
Orbit: 789 x 1419 km, 63.4° (Epoch: 22 January)

Date Brightness Start Highest point End Pass type
(mag) Time Alt. Az. Time Alt. Az. Time Alt. Az.
24 Jan 4.3 12:29:57 10° S 12:35:01 42° ESE 12:40:36 10° NE visible
24 Jan 4.3 14:21:20 10° WSW 14:25:59 26° NW 14:31:08 10° N visible
25 Jan 5.3 11:48:05 19° SE 11:49:58 22° ESE 11:54:22 10° ENE visible
25 Jan 3.6 13:35:37 13° WSW 13:40:16 43° NW 13:46:08 10° NNE visible
26 Jan 6.1 11:05:41 11° E 11:05:41 11° E 11:06:23 10° E visible
26 Jan 3.1 12:53:11 49° SW 12:54:45 76° WNW 13:00:52 10° NNE visible
27 Jan 3.8 12:10:18 53° ENE 12:10:18 53° ENE 12:15:21 10° NE visible
27 Jan 4.6 13:57:46 14° W 14:00:47 20° NW 14:05:19 10° N visible
28 Jan 5.4 11:27:10 21° ENE 11:27:10 21° ENE 11:29:27 10° NE visible
28 Jan 3.9 13:14:36 32° WNW 13:14:57 33° NW 13:20:29 10° NNE visible
29 Jan 4.1 12:31:16 39° N 12:31:16 39° N 12:35:22 10° NNE visible
29 Jan 5.3 14:21:15 10° NW 14:21:48 10° NNW 14:22:23 10° NNW visible
30 Jan 5.2 11:47:45 23° NNE 11:47:45 23° NNE 11:50:00 10° NNE visible
30 Jan 4.9 13:35:11 16° NW 13:35:39 16° NW 13:39:23 10° N visible
31 Jan 6.1 11:04:09 11° NE 11:04:09 11° NE 11:04:19 10° NE visible
31 Jan 4.8 12:51:34 22° NNW 12:51:34 22° NNW 12:54:47 10° N visible
01 Feb 5.2 12:07:52 19° N 12:07:52 19° N 12:09:48 10° NNE visible
02 Feb 5.9 11:24:05 12° NNE 11:24:05 12° NNE 11:24:33 10° NNE visible
02 Feb 5.3 13:11:29 12° NNW 13:11:29 12° NNW 13:13:11 10° N visible
